Погода в Бузулуке

Россия / Оренбургская область     52°47′17″N   52°15′44″E
темп.,
°C
ветер,
м/с
пор.,
м/с
влажн.,
%
обл.,
%
осадки,
мм/ч
давл.,
гПа
погр.,
м
22 апреля, чт
чт2223:00+7ю71356100 0.2 1027999
02:00+5ююв71583100 2.4 1027868
05:00+5ююв51283100 4.0 1027553
08:00+6ююв6127475 0.1 1028621
11:00+8ююв71165100 0.1 1028632
14:00+8ююв81060100 0.5 1028762
17:00+9ююв7959100 0.6 1027946
20:00+6ююв71184100 0.0 1028762
23 апреля, пт
пт2323:00+5ююв5989100 0.0 1028686
02:00+5ююв369085 0.0 1028380
05:00+4вюв2396100 0.0 102770
08:00+5вюв3589100 0.0 1027205
11:00+10вюв4560100 0.0 1026644
14:00+14вюв5643100 0.0 10241176
17:00+13ююв5758100 0.0 10231096
20:00+9ю71085100 0.1 1023526
24 апреля, сб
сб2423:00+7юв5891100 2.1 1022631
02:00+7всв3791100 2.4 1018432
05:00+7в4992100 4.3 1015563
08:00+7в4794100 1.4 1014401
11:00+7вюв2493100 2.0 1013283
14:00+8ююв2392100 0.7 1012221
17:00+8зюз2490100 0.9 1012385
20:00+8зюз248420 0.1 101377
25 апреля, вс
вс2523:00+6ю34905 0.1 101364
02:00+6ююв41193100 0.1 1012238
05:00+6ююз5119369 0.3 1012272
08:00+8зюз712810 0.1 1013849
11:00+11зюз812575 0.1 10141768
14:00+13зюз91241100 0.0 10152854
17:00+13зюз91141100 0.0 10162520
20:00+10юз48606 0.0 1016247
26 апреля, пн
пн2623:00+7юз237487 0.1 101832
02:00+6юз3376100 0.0 101844
05:00+5зюз3481100 0.0 101871
08:00+6з368215 0.0 1019242
11:00+10сз455428 0.0 10191080
14:00+12сз333556 0.0 10191655
17:00+13с3333100 0.0 10181743
20:00+11ссв3552100 0.0 1017128